• Join FlightAware (Why Join?)
  • Login
  • US Flag 
07:35AM EST


 

Airport Tracker/Info


-or-


 

Live Flight TrackerFlight Track Log ✈ GLO1667 ✈ 03-Nov-2013 ✈ SBCF / CNF - SBRJ / SDU

Flight Track Log - Related Links

Times and Time Zones

All times are in EST time to prevent confusion due to time zone crossing. See the GLO1667 flight status page for this flight to view local times or setup timezone preferences in your user account.

Time Position Orientation Groundspeed Altitude Reporting Facility
EST Latitude Longitude Course Direction KTS MPH feet Rate Location/Type
12:35PM -19.6280 -43.9740 223° Southwest 98 113  Level FlightAware
12:36PM -19.6430 -43.9600 139° Southeast 161 185 3,200 4,062 Climbing FlightAware
12:37PM -19.6650 -43.9450 147° Southeast 172 198 4,400 1,680 Climbing FlightAware
12:37PM -19.6970 -43.9290 155° Southeast 212 244 5,300 1,920 Climbing FlightAware
12:38PM -19.7290 -43.9150 158° South 224 258 6,800 2,057 Climbing FlightAware
12:38PM -19.7670 -43.8970 156° South 269 310 7,700 2,229 Climbing FlightAware
12:39PM -19.8070 -43.8780 156° South 280 322 9,400 2,941 Climbing FlightAware
12:39PM -19.8260 -43.8750 172° South 282 325 10,200 1,889 Climbing FlightAware
12:40PM -19.8750 -43.8830 189° South 325 374 11,100 2,024 Climbing FlightAware
12:41PM -19.9470 -43.8950 189° South 344 396 13,000 2,925 Climbing FlightAware
12:41PM -20.0070 -43.9050 189° South 347 399 15,000 3,158 Climbing FlightAware
12:42PM -20.0740 -43.9170 190° South 356 410 17,000 2,780 Climbing FlightAware
12:43PM -20.1430 -43.9290 189° South 371 427 18,800 2,416 Climbing FlightAware
12:43PM -20.2060 -43.9390 188° South 384 442 20,100 2,338 Climbing FlightAware
12:44PM -20.2770 -43.9490 188° South 391 450 21,800 2,583 Climbing FlightAware
12:44PM -20.3340 -43.9570 187° South 393 452 23,200 2,451 Climbing FlightAware
12:45PM -20.4090 -43.9680 188° South 401 461 24,700 2,143 Climbing FlightAware
12:46PM -20.4650 -43.9760 188° South 408 470 25,700 2,063 Climbing FlightAware
12:46PM -20.5300 -43.9860 188° South 413 475 26,900 2,000 Climbing FlightAware
12:47PM -20.6130 -43.9980 188° South 420 483 28,300 1,929 Climbing FlightAware
12:48PM -20.7460 -44.0180 188° South 424 488 30,500 1,962 Climbing FlightAware
12:49PM -20.8170 -44.0280 187° South 424 488 31,700 2,143 Climbing FlightAware
12:49PM -20.8820 -44.0380 188° South 417 480 33,000 2,091 Climbing FlightAware
12:50PM -20.9420 -44.0470 188° South 408 470 34,000 822 Climbing FlightAware
12:50PM -21.0140 -44.0570 187° South 408 470 34,000  Level FlightAware
12:51PM -21.0790 -44.0670 188° South 410 472 34,000  Level FlightAware
12:51PM -21.1430 -44.0760 187° South 410 472 34,000  Level FlightAware
12:52PM -21.2290 -44.0890 188° South 410 472 34,000  Level FlightAware
12:53PM -21.2860 -44.0980 188° South 409 471 34,000  Level FlightAware
12:53PM -21.3510 -44.1070 187° South 410 472 34,000  Level FlightAware
12:54PM -21.4270 -44.1180 188° South 411 473 34,000  Level FlightAware
12:55PM -21.4930 -44.1280 188° South 411 473 34,000  Level FlightAware
12:55PM -21.5680 -44.1400 188° South 411 473 34,000  Level FlightAware
12:56PM -21.6560 -44.1530 188° South 411 473 34,000  Level FlightAware
12:57PM -21.7300 -44.1640 188° South 413 475 34,000  Level FlightAware
12:57PM -21.8170 -44.1760 187° South 413 475 34,000  Level FlightAware
12:58PM -21.8570 -44.1830 189° South 413 475 34,000 -1,385 Level FlightAware
12:59PM -21.9380 -44.1810 179° South 403 464 32,500 -2,300 Descending FlightAware
12:59PM -21.9710 -44.1620 152° Southeast 399 459 31,700 -2,250 Descending FlightAware
01:00PM -22.0490 -44.1110 149° Southeast 393 452 29,800 -2,194 Descending FlightAware
01:00PM -22.1070 -44.0720 148° Southeast 388 447 28,300 -2,133 Descending FlightAware
01:01PM -22.1780 -44.0240 148° Southeast 383 441 26,600 -2,417 Descending FlightAware
01:02PM -22.2020 -44.0090 150° Southeast 378 435 25,400 -2,400 Descending FlightAware
01:03PM -22.3530 -43.9080 148° Southeast 370 426 22,200 -2,208 Descending FlightAware
01:04PM -22.4100 -43.8700 148° Southeast 364 419 20,800 -2,188 Descending FlightAware
01:04PM -22.4770 -43.8300 151° Southeast 357 411 19,100 -2,200 Descending FlightAware
01:05PM -22.5450 -43.7990 157° South 349 402 17,500 -2,045 Descending FlightAware
01:06PM -22.6040 -43.7730 158° South 340 391 16,100 -1,765 Descending FlightAware
01:07PM -22.6680 -43.7430 157° South 324 373 15,000 -1,403 Descending FlightAware
01:07PM -22.7150 -43.7220 158° South 308 354 14,300 -1,477 Descending FlightAware
01:08PM -22.7530 -43.7050 158° South 304 350 13,400 -1,662 Descending FlightAware
01:08PM -22.7990 -43.6830 156° South 301 346 12,500 -1,600 Descending FlightAware
01:09PM -22.8490 -43.6600 157° South 296 341 11,400 -1,467 Descending FlightAware
01:10PM -22.9110 -43.6300 156° South 283 326 10,300 -1,185 Descending FlightAware
01:10PM -22.9340 -43.5970 127° Southeast 274 315 9,800 -468 Descending FlightAware
01:11PM -22.9370 -43.5410 93° East 270 311 9,700 -1,933 Descending FlightAware
01:12PM -22.9050 -43.4820 60° Northeast 280 322 6,900 -2,810 Descending FlightAware
01:12PM -22.8890 -43.4330 70° East 265 305 6,000 -1,286 Descending FlightAware
01:13PM -22.8750 -43.3910 70° East 252 290 5,400 -581 Descending FlightAware
01:13PM -22.8660 -43.3640 70° East 252 290 5,400 -1,286 Level FlightAware
01:14PM -22.8760 -43.3260 106° East 239 275 4,200 -1,652 Descending FlightAware
01:15PM -22.8860 -43.2790 103° East 225 259 3,500 -913 Descending FlightAware
01:15PM -22.8980 -43.2250 104° East 197 227 2,800 -830 Descending FlightAware
01:16PM -22.9060 -43.1880 103° East 174 200 2,200 -769 Descending FlightAware
01:17PM -22.9120 -43.1580 102° East 153 176 1,800 -771 Descending FlightAware
01:17PM -22.9000 -43.1380 57° Northeast 136 157 1,300 -857 Descending FlightAware
01:18PM -22.8790 -43.1420 350° North 144 166 800 -618 Descending FlightAware
01:18PM -22.8830 -43.1610 257° West 131 151 600 -429 Descending FlightAware
01:19PM -22.8880 -43.1630 200° South 131 151 500 -162 Descending FlightAware
01:19PM -22.8980 -43.1740 225° Southwest 131 151 500  Level FlightAware